No;Time;Interval(mi);Indoor Humidity(%);Indoor Temperature(�C);Outdoor Humidity(%);Outdoor Temperature(�C);Absolute Pressure(Hpa);Wind(km/h);Gust(km/h);Direction;Relative Pressure(Hpa);Dewpoint(�C);Windchill(�C);Hour Rainfall(mm);24 hour Rainfall(mm);Week Rainfall(mm);Month Rainfall(mm);Total Rainfall(mm);Wind Level(bft);Gust Level(bft)
1;01-06-2012 00:13;30;48;25.6;69;17.6;1015.9;0.0;0.0;E;1008.7;11.9;17.6;0.0;0.0;11.7;36.9;526.2;0;0
2;01-06-2012 00:43;30;49;25.5;71;17.3;1016.0;0.0;0.0;NW;1008.8;12.0;17.3;0.0;0.0;11.7;36.9;526.2;0;0
3;01-06-2012 01:13;30;49;25.4;72;17.0;1015.7;0.0;0.0;NW;1008.5;11.9;17.0;0.0;0.0;11.7;36.9;526.2;0;0
4;01-06-2012 01:43;30;49;25.3;73;16.7;1016.1;0.0;0.0;N;1008.9;11.9;16.7;0.0;0.0;11.7;36.9;526.2;0;0
5;01-06-2012 02:13;30;49;25.3;73;16.7;1015.8;0.0;0.0;NW;1008.6;11.9;16.7;0.0;0.0;11.7;36.9;526.2;0;0
6;01-06-2012 02:43;30;49;25.2;73;16.4;1015.7;0.0;0.0;NWW;1008.5;11.6;16.4;0.0;0.0;11.7;36.9;526.2;0;0
7;01-06-2012 03:13;30;49;25.1;74;16.4;1015.6;0.0;0.0;NW;1008.4;11.8;16.4;0.0;0.0;11.7;36.9;526.2;0;0
8;01-06-2012 03:43;30;49;25.1;74;16.5;1015.6;0.0;0.0;N;1008.4;11.9;16.5;0.0;0.0;11.7;36.9;526.2;0;0
9;01-06-2012 04:13;30;49;25.1;74;16.4;1015.5;0.0;0.0;S;1008.3;11.8;16.4;0.0;0.0;11.7;36.9;526.2;0;0
10;01-06-2012 04:43;30;50;25.0;76;16.3;1015.4;0.0;0.0;E;1008.2;12.1;16.3;0.0;0.0;11.7;36.9;526.2;0;0
11;01-06-2012 05:13;30;50;25.0;77;16.3;1015.3;0.0;0.0;N;1008.1;12.3;16.3;0.0;0.0;11.7;36.9;526.2;0;0
12;01-06-2012 05:43;30;51;24.9;78;16.3;1015.3;0.0;0.0;NW;1008.1;12.5;16.3;0.0;0.0;11.7;36.9;526.2;0;0
13;01-06-2012 06:13;30;51;24.9;79;16.2;1015.5;0.0;0.0;NW;1008.3;12.6;16.2;0.0;0.0;11.7;36.9;526.2;0;0
14;01-06-2012 06:43;30;51;24.9;80;16.2;1015.5;0.0;0.0;N;1008.3;12.8;16.2;0.0;0.0;11.7;36.9;526.2;0;0
15;01-06-2012 07:13;30;51;24.8;80;16.2;1015.7;0.0;0.0;N;1008.5;12.8;16.2;0.0;0.0;11.7;36.9;526.2;0;0
16;01-06-2012 07:43;30;50;24.4;81;16.3;1015.8;0.0;0.0;NW;1008.6;13.1;16.3;0.0;0.0;11.7;36.9;526.2;0;0
17;01-06-2012 08:13;30;51;24.1;82;16.6;1015.8;0.0;0.0;N;1008.6;13.5;16.6;0.0;0.0;11.7;36.9;526.2;0;0
18;01-06-2012 08:43;30;52;24.3;78;18.1;1015.9;0.0;0.0;NW;1008.7;14.2;18.1;0.0;0.0;11.7;36.9;526.2;0;0
19;01-06-2012 09:13;30;53;24.6;75;19.2;1016.0;0.0;0.0;SW;1008.8;14.7;19.2;0.0;0.0;11.7;36.9;526.2;0;0
20;01-06-2012 09:43;30;54;24.9;74;19.4;1016.1;0.0;0.0;NE;1008.9;14.7;19.4;0.0;0.0;11.7;36.9;526.2;0;0
21;01-06-2012 10:13;30;53;25.0;73;20.0;1016.2;0.0;0.0;SE;1009.0;15.0;20.0;0.0;0.0;11.7;36.9;526.2;0;0
22;01-06-2012 10:43;30;53;25.2;64;23.0;1016.0;0.0;0.0;E;1008.8;15.9;23.0;0.0;0.0;11.7;36.9;526.2;0;0
23;01-06-2012 11:13;30;53;25.3;62;22.8;1015.9;0.0;0.0;NW;1008.7;15.2;22.8;0.0;0.0;11.7;36.9;526.2;0;0
24;01-06-2012 11:43;30;53;25.3;62;22.7;1015.9;0.0;0.0;N;1008.7;15.1;22.7;0.0;0.0;11.7;36.9;526.2;0;0
25;01-06-2012 12:13;30;53;25.3;61;22.4;1015.9;0.0;0.0;E;1008.7;14.5;22.4;0.0;0.0;11.7;36.9;526.2;0;0
26;01-06-2012 12:43;30;53;25.4;60;23.3;1015.7;0.0;0.0;NW;1008.5;15.1;23.3;0.0;0.0;11.7;36.9;526.2;0;0
27;01-06-2012 13:13;30;53;25.3;65;21.6;1015.7;0.0;0.0;N;1008.5;14.8;21.6;0.0;0.0;11.7;36.9;526.2;0;0
28;01-06-2012 13:43;30;53;25.3;65;21.0;1015.6;0.0;0.0;S;1008.4;14.2;21.0;0.0;0.0;11.7;36.9;526.2;0;0
29;01-06-2012 14:13;30;53;25.3;66;20.6;1015.6;0.0;0.0;N;1008.4;14.1;20.6;0.0;0.0;11.7;36.9;526.2;0;0
30;01-06-2012 14:43;30;53;25.3;64;21.1;1015.3;0.0;0.0;NW;1008.1;14.1;21.1;0.0;0.0;11.7;36.6;526.2;0;0
31;01-06-2012 15:13;30;53;25.3;65;21.0;1015.1;0.0;0.0;NW;1007.9;14.2;21.0;0.0;0.0;11.7;36.6;526.2;0;0
32;01-06-2012 15:43;30;53;25.3;62;22.5;1014.9;0.0;0.0;NW;1007.7;14.9;22.5;0.0;0.0;11.7;36.3;526.2;0;0
33;01-06-2012 16:13;30;53;25.4;62;22.8;1014.6;0.0;0.0;W;1007.4;15.2;22.8;0.0;0.0;11.7;36.3;526.2;0;0
34;01-06-2012 16:43;30;53;25.4;62;22.5;1014.6;0.0;0.0;N;1007.4;14.9;22.5;0.0;0.0;11.7;36.3;526.2;0;0
35;01-06-2012 17:13;30;53;25.4;63;22.4;1014.3;0.0;0.0;N;1007.1;15.0;22.4;0.0;0.0;11.7;36.3;526.2;0;0
36;01-06-2012 17:43;30;53;25.4;62;22.2;1014.2;0.0;0.0;SW;1007.0;14.6;22.2;0.0;0.0;11.7;36.3;526.2;0;0
37;01-06-2012 18:13;30;53;25.4;64;22.2;1014.0;0.0;0.0;N;1006.8;15.1;22.2;0.0;0.0;11.7;36.0;526.2;0;0
38;01-06-2012 18:43;30;53;25.4;59;23.4;1014.0;0.0;0.0;N;1006.8;15.0;23.4;0.0;0.0;11.7;36.0;526.2;0;0
39;01-06-2012 19:13;30;52;25.3;60;23.2;1013.8;0.0;0.0;N;1006.6;15.0;23.2;0.0;0.0;11.7;35.4;526.2;0;0
40;01-06-2012 19:43;30;52;25.1;60;22.4;1013.8;0.0;0.0;E;1006.6;14.3;22.4;0.0;0.0;11.7;35.4;526.2;0;0
41;01-06-2012 20:13;30;53;25.1;61;22.1;1013.7;0.0;0.0;E;1006.5;14.3;22.1;0.0;0.0;11.7;35.4;526.2;0;0
42;01-06-2012 20:43;30;53;25.2;61;21.5;1013.4;0.0;0.0;NW;1006.2;13.7;21.5;0.0;0.0;11.7;35.4;526.2;0;0
43;01-06-2012 21:13;30;52;25.1;63;21.2;1013.3;0.0;0.0;NW;1006.1;13.9;21.2;0.0;0.0;11.7;35.1;526.2;0;0
44;01-06-2012 21:43;30;53;25.1;64;20.9;1013.1;0.0;0.0;SE;1005.9;13.9;20.9;0.0;0.0;11.7;35.1;526.2;0;0
45;01-06-2012 22:13;30;53;25.3;65;20.7;1013.2;0.0;0.0;NW;1006.0;13.9;20.7;0.0;0.0;11.7;35.1;526.2;0;0
46;01-06-2012 22:43;30;53;25.4;65;20.4;1013.1;0.0;0.0;N;1005.9;13.6;20.4;0.0;0.0;11.7;34.8;526.2;0;0
47;01-06-2012 23:13;30;53;25.5;66;20.4;1013.2;0.0;0.0;NW;1006.0;13.9;20.4;0.0;0.0;11.7;34.8;526.2;0;0
48;01-06-2012 23:43;30;53;25.5;66;20.2;1013.1;0.0;0.0;NW;1005.9;13.7;20.2;0.0;0.0;11.7;34.8;526.2;0;0
49;02-06-2012 00:13;30;53;25.4;69;19.7;1012.9;0.0;0.0;N;1005.7;13.9;19.7;0.0;0.0;11.7;34.8;526.2;0;0
50;02-06-2012 00:43;30;53;25.3;74;18.5;1013.0;0.0;0.0;NE;1005.8;13.8;18.5;0.0;0.0;11.7;34.8;526.2;0;0
51;02-06-2012 01:13;30;53;25.2;76;17.9;1013.0;0.0;0.0;N;1005.8;13.6;17.9;0.0;0.0;11.7;34.8;526.2;0;0
52;02-06-2012 01:43;30;53;25.1;79;17.3;1012.6;0.0;0.0;NW;1005.4;13.6;17.3;0.0;0.0;11.7;34.8;526.2;0;0
53;02-06-2012 02:13;30;53;25.0;82;16.9;1012.2;0.0;0.0;N;1005.0;13.8;16.9;0.0;0.0;11.7;34.8;526.2;0;0
54;02-06-2012 02:43;30;53;25.0;84;16.0;1012.3;0.0;0.0;N;1005.1;13.3;16.0;0.0;0.0;11.7;34.8;526.2;0;0
55;02-06-2012 03:13;30;54;24.9;86;15.4;1012.1;0.0;0.0;N;1004.9;13.1;15.4;0.0;0.0;11.7;34.8;526.2;0;0
56;02-06-2012 03:43;30;55;24.9;89;14.8;1011.9;0.0;0.0;N;1004.7;13.0;14.8;0.0;0.0;11.7;34.5;526.2;0;0
57;02-06-2012 04:13;30;55;24.8;90;14.4;1011.7;0.0;0.0;N;1004.5;12.8;14.4;0.0;0.0;11.7;34.2;526.2;0;0
58;02-06-2012 04:43;30;55;24.8;92;14.1;1011.5;0.0;0.0;N;1004.3;12.8;14.1;0.0;0.0;11.7;34.2;526.2;0;0
59;02-06-2012 05:13;30;55;24.7;94;13.8;1011.2;0.0;0.0;N;1004.0;12.9;13.8;0.0;0.0;11.7;34.2;526.2;0;0
60;02-06-2012 05:43;30;55;24.7;95;14.1;1011.0;0.0;0.0;E;1003.8;13.3;14.1;0.0;0.0;11.7;34.2;526.2;0;0
61;02-06-2012 06:13;30;55;24.6;95;14.0;1010.8;0.0;0.0;E;1003.6;13.2;14.0;0.0;0.0;11.7;34.2;526.2;0;0
62;02-06-2012 06:43;30;55;24.6;95;14.2;1010.7;0.0;0.0;E;1003.5;13.4;14.2;0.0;0.0;11.7;34.2;526.2;0;0
63;02-06-2012 07:13;30;55;24.6;95;14.8;1010.8;0.0;0.0;N;1003.6;14.0;14.8;0.0;0.0;11.7;34.2;526.2;0;0
64;02-06-2012 07:43;30;55;24.6;93;15.2;1010.7;0.0;0.0;E;1003.5;14.1;15.2;0.0;0.0;11.7;34.2;526.2;0;0
65;02-06-2012 08:13;30;55;24.6;89;17.4;1010.8;0.0;0.0;E;1003.6;15.6;17.4;0.0;0.0;11.7;34.2;526.2;0;0
66;02-06-2012 08:43;30;55;24.7;78;19.7;1010.7;0.0;0.0;E;1003.5;15.8;19.7;0.0;0.0;11.7;34.2;526.2;0;0
67;02-06-2012 09:13;30;55;24.8;73;20.7;1010.6;0.0;1.1;E;1003.4;15.7;20.7;0.0;0.0;11.7;34.2;526.2;0;1
68;02-06-2012 09:43;30;55;24.9;68;21.0;1010.6;0.0;1.1;NW;1003.4;14.9;21.0;0.0;0.0;11.7;34.2;526.2;0;1
69;02-06-2012 10:13;30;54;25.1;64;22.2;1010.5;0.0;0.0;N;1003.3;15.1;22.2;0.0;0.0;11.7;34.2;526.2;0;0
70;02-06-2012 10:43;30;54;25.1;59;23.0;1010.4;0.0;0.0;W;1003.2;14.6;23.0;0.0;0.0;11.7;33.9;526.2;0;0
71;02-06-2012 11:13;30;53;25.0;57;24.7;1010.2;0.0;1.1;E;1003.0;15.6;24.7;0.0;0.0;11.7;33.9;526.2;0;1
72;02-06-2012 11:43;30;53;25.0;54;25.4;1010.1;0.0;2.5;S;1002.9;15.4;25.4;0.0;0.0;11.7;33.9;526.2;0;1
73;02-06-2012 12:13;30;53;25.0;49;26.7;1009.7;0.0;1.1;NW;1002.5;15.1;26.7;0.0;0.0;11.7;33.9;526.2;0;1
74;02-06-2012 12:43;30;53;25.1;47;27.6;1009.5;0.0;0.0;E;1002.3;15.3;27.6;0.0;0.0;11.7;33.9;526.2;0;0
75;02-06-2012 13:13;30;53;25.1;45;28.3;1009.1;0.0;0.0;NW;1001.9;15.3;28.3;0.0;0.0;11.7;33.9;526.2;0;0
76;02-06-2012 13:43;30;53;25.2;44;29.3;1008.7;0.0;1.1;NW;1001.5;15.8;29.3;0.0;0.0;11.7;33.9;526.2;0;1
77;02-06-2012 14:13;30;53;25.3;42;29.1;1008.3;0.0;1.1;NW;1001.1;14.9;29.1;0.0;0.0;11.7;33.9;526.2;0;1
78;02-06-2012 14:43;30;53;25.4;40;30.4;1007.9;0.0;0.0;NE;1000.7;15.3;30.4;0.0;0.0;11.7;33.9;526.2;0;0
79;02-06-2012 15:13;30;53;25.4;42;28.9;1007.5;0.0;1.1;NW;1000.3;14.7;28.9;0.0;0.0;11.7;33.9;526.2;0;1
80;02-06-2012 15:43;30;53;25.5;45;28.4;1007.2;0.0;0.0;S;1000.0;15.4;28.4;0.0;0.0;11.7;33.9;526.2;0;0
81;02-06-2012 16:13;30;53;25.5;44;28.8;1007.1;0.0;0.0;SE;999.9;15.4;28.8;0.0;0.0;11.7;33.9;526.2;0;0
82;02-06-2012 16:43;30;53;25.7;45;28.9;1006.5;0.0;1.1;NW;999.3;15.8;28.9;0.0;0.0;11.7;33.9;526.2;0;1
83;02-06-2012 17:13;30;53;25.8;46;28.4;1006.4;0.0;1.1;SE;999.2;15.7;28.4;0.0;0.0;11.7;33.9;526.2;0;1
84;02-06-2012 17:43;30;53;25.8;45;27.9;1006.2;0.0;0.0;NW;999.0;14.9;27.9;0.0;0.0;11.7;33.9;526.2;0;0
85;02-06-2012 18:13;30;53;26.0;47;27.3;1006.0;0.0;0.0;E;998.8;15.0;27.3;0.0;0.0;11.7;33.9;526.2;0;0
86;02-06-2012 18:43;30;53;26.2;51;26.7;1005.7;0.0;1.1;E;998.5;15.8;26.7;0.0;0.0;11.7;33.9;526.2;0;1
87;02-06-2012 19:13;30;53;26.3;52;26.0;1005.6;0.0;0.0;E;998.4;15.4;26.0;0.0;0.0;11.7;33.9;526.2;0;0
88;02-06-2012 19:43;30;53;26.4;54;25.9;1005.5;0.0;0.0;NW;998.3;15.9;25.9;0.0;0.0;11.7;33.9;526.2;0;0
89;02-06-2012 20:13;30;53;26.3;54;25.5;1005.4;0.0;0.0;E;998.2;15.5;25.5;0.0;0.0;11.7;33.9;526.2;0;0
90;02-06-2012 20:43;30;53;26.2;55;25.0;1005.5;0.0;0.0;NE;998.3;15.4;25.0;0.0;0.0;11.7;33.9;526.2;0;0
91;02-06-2012 21:13;30;53;26.1;56;24.5;1005.3;0.0;0.0;SE;998.1;15.2;24.5;0.0;0.0;11.7;33.9;526.2;0;0
92;02-06-2012 21:43;30;54;26.0;57;24.1;1005.0;0.0;0.0;NW;997.8;15.1;24.1;0.0;0.0;11.7;33.9;526.2;0;0
93;02-06-2012 22:13;30;55;25.9;59;23.8;1004.5;0.0;0.0;NW;997.3;15.3;23.8;0.0;0.0;11.7;33.9;526.2;0;0
94;02-06-2012 22:43;30;55;25.9;59;23.5;1005.0;0.0;0.0;NE;997.8;15.1;23.5;0.0;0.0;11.7;33.9;526.2;0;0
95;02-06-2012 23:13;30;55;25.8;60;23.2;1005.0;0.0;0.0;NW;997.8;15.0;23.2;0.0;0.0;11.7;33.9;526.2;0;0
96;02-06-2012 23:43;30;55;25.7;61;23.0;1004.1;0.0;0.0;NW;996.9;15.1;23.0;0.0;0.0;11.7;33.9;526.2;0;0
97;03-06-2012 00:13;30;55;25.7;63;22.7;1003.4;0.0;0.0;E;996.2;15.3;22.7;0.0;0.0;11.7;33.9;526.2;0;0
98;03-06-2012 00:43;30;56;25.7;63;22.5;1002.8;0.0;0.0;NW;995.6;15.1;22.5;0.0;0.0;11.7;33.9;526.2;0;0
99;03-06-2012 01:13;30;56;25.6;64;22.2;1002.7;0.0;0.0;N;995.5;15.1;22.2;0.0;0.0;11.7;33.9;526.2;0;0
100;03-06-2012 01:43;30;56;25.6;66;21.7;1002.4;0.0;0.0;NW;995.2;15.1;21.7;0.0;0.0;11.7;33.9;526.2;0;0
101;03-06-2012 02:13;30;56;25.6;66;21.5;1001.9;0.0;0.0;SW;994.7;14.9;21.5;0.0;0.0;11.7;33.9;526.2;0;0
102;03-06-2012 02:43;30;56;25.5;81;19.9;1002.3;0.0;0.0;NW;995.1;16.6;19.9;0.0;0.0;11.7;33.9;526.2;0;0
103;03-06-2012 03:13;30;56;25.5;89;18.9;1002.1;0.0;0.0;N;994.9;17.1;18.9;0.6;0.6;12.3;34.5;526.8;0;0
104;03-06-2012 03:43;30;57;25.5;94;18.7;1003.3;0.0;0.0;N;996.1;17.7;18.7;2.1;2.1;13.8;36.0;528.3;0;0
105;03-06-2012 04:13;30;57;25.5;95;18.2;1002.4;0.0;0.0;NW;995.2;17.4;18.2;6.3;6.9;18.6;40.8;533.1;0;0
106;03-06-2012 04:43;30;57;25.5;97;18.0;1001.9;0.0;0.0;NW;994.7;17.5;18.0;6.0;8.1;19.8;42.0;534.3;0;0
107;03-06-2012 05:13;30;58;25.4;97;18.1;1001.9;0.0;0.0;NW;994.7;17.6;18.1;1.2;8.1;19.8;42.0;534.3;0;0
108;03-06-2012 05:43;30;58;25.4;98;18.0;1001.0;0.0;0.0;NW;993.8;17.7;18.0;1.2;9.3;21.0;43.2;535.5;0;0
109;03-06-2012 06:13;30;58;25.4;99;18.2;1000.9;0.0;0.0;N;993.7;18.1;18.2;1.5;9.6;21.3;43.5;535.8;0;0
110;03-06-2012 06:43;30;59;25.4;99;18.3;1000.8;0.0;0.0;N;993.6;18.2;18.3;0.3;9.6;21.3;43.5;535.8;0;0
111;03-06-2012 07:13;30;59;25.4;99;18.5;1001.0;0.0;0.0;NE;993.8;18.4;18.5;0.0;9.6;21.3;43.5;535.8;0;0
112;03-06-2012 07:43;30;59;25.4;99;18.5;1001.5;0.0;0.0;NE;994.3;18.4;18.5;0.3;9.9;21.6;43.8;536.1;0;0
113;03-06-2012 08:13;30;59;25.4;97;17.8;1002.4;0.0;0.0;NE;995.2;17.3;17.8;0.3;9.9;21.6;43.8;536.1;0;0
114;03-06-2012 08:43;30;59;25.4;97;17.3;1002.9;0.0;0.0;NW;995.7;16.8;17.3;0.0;9.9;21.6;43.8;536.1;0;0
115;03-06-2012 09:13;30;59;25.4;96;16.9;1003.4;0.0;0.0;S;996.2;16.3;16.9;0.0;9.9;21.6;43.8;536.1;0;0
116;03-06-2012 09:43;30;58;24.9;95;16.4;1004.1;0.0;0.0;SE;996.9;15.6;16.4;0.0;9.9;21.6;43.8;536.1;0;0
117;03-06-2012 10:13;30;58;24.7;94;16.0;1004.4;0.0;0.0;NW;997.2;15.1;16.0;0.0;9.9;21.6;43.8;536.1;0;0
118;03-06-2012 10:43;30;58;24.3;94;16.3;1004.5;0.0;0.0;NW;997.3;15.4;16.3;0.0;9.9;21.6;43.8;536.1;0;0
119;03-06-2012 11:13;30;57;24.2;93;15.9;1005.0;0.0;1.1;N;997.8;14.8;15.9;0.0;9.9;21.6;43.8;536.1;0;1
120;03-06-2012 11:43;30;56;24.0;90;16.0;1005.4;0.0;0.0;W;998.2;14.4;16.0;0.0;9.9;21.6;43.8;536.1;0;0
121;03-06-2012 12:13;30;56;24.1;89;16.1;1005.4;0.0;1.1;E;998.2;14.3;16.1;0.0;9.9;21.6;43.8;536.1;0;1
122;03-06-2012 12:43;30;57;24.4;82;17.8;1005.5;0.0;0.0;NW;998.3;14.7;17.8;0.0;9.9;21.6;43.8;536.1;0;0
123;03-06-2012 13:13;30;57;24.6;81;17.9;1005.9;0.0;2.5;N;998.7;14.6;17.9;0.0;9.9;21.6;43.5;536.1;0;1
124;03-06-2012 13:43;30;55;24.6;71;19.9;1006.1;0.0;0.0;SE;998.9;14.5;19.9;0.0;9.9;21.6;43.5;536.1;0;0
125;03-06-2012 14:13;30;55;24.8;68;20.3;1006.2;0.0;0.0;W;999.0;14.2;20.3;0.0;9.9;21.6;43.5;536.1;0;0
126;03-06-2012 14:43;30;54;24.8;68;20.1;1006.5;0.0;0.0;E;999.3;14.0;20.1;0.0;9.9;21.6;43.5;536.1;0;0
127;03-06-2012 15:13;30;53;24.8;69;20.9;1006.4;0.0;0.0;SW;999.2;15.0;20.9;0.0;9.9;21.6;43.5;536.1;0;0
128;03-06-2012 15:43;30;53;24.9;64;20.2;1006.4;0.0;0.0;E;999.2;13.2;20.2;0.0;9.9;21.6;43.5;536.1;0;0
129;03-06-2012 16:13;30;53;25.0;70;18.3;1006.8;0.0;0.0;NW;999.6;12.8;18.3;0.0;9.9;21.6;43.5;536.1;0;0
130;03-06-2012 16:43;30;53;25.1;70;18.2;1006.9;0.0;0.0;S;999.7;12.7;18.2;0.0;9.9;21.6;43.5;536.1;0;0
131;03-06-2012 17:13;30;53;25.3;68;19.5;1006.7;0.0;1.1;NW;999.5;13.5;19.5;0.0;9.9;21.6;43.5;536.1;0;1
132;03-06-2012 17:43;30;53;25.3;63;20.1;1006.8;0.0;0.0;NW;999.6;12.9;20.1;0.0;9.9;21.6;43.5;536.1;0;0
133;03-06-2012 18:13;30;51;25.1;63;20.1;1006.8;0.0;0.0;NW;999.6;12.9;20.1;0.3;10.2;21.9;43.8;536.4;0;0
134;03-06-2012 18:43;30;50;24.8;65;20.0;1006.8;0.0;0.0;SE;999.6;13.2;20.0;0.3;10.2;21.9;43.8;536.4;0;0
135;03-06-2012 19:13;30;50;24.7;65;20.0;1006.7;0.0;0.0;NW;999.5;13.2;20.0;0.0;10.2;21.9;43.5;536.4;0;0
136;03-06-2012 19:43;30;51;24.6;65;19.7;1006.8;0.0;0.0;S;999.6;13.0;19.7;0.0;10.2;21.9;43.2;536.4;0;0
137;03-06-2012 20:13;30;49;24.5;65;19.0;1006.7;0.0;0.0;SW;999.5;12.3;19.0;0.0;10.2;21.9;43.2;536.4;0;0
138;03-06-2012 20:43;30;49;24.5;68;18.2;1006.8;0.0;0.0;N;999.6;12.2;18.2;0.0;10.2;21.9;43.2;536.4;0;0
139;03-06-2012 21:13;30;49;24.6;68;18.2;1006.8;0.0;0.0;S;999.6;12.2;18.2;0.0;10.2;21.9;43.2;536.4;0;0
140;03-06-2012 21:43;30;49;24.6;69;17.9;1006.8;0.0;0.0;E;999.6;12.2;17.9;0.0;10.2;21.9;43.2;536.4;0;0
141;03-06-2012 22:13;30;50;24.9;73;17.6;1007.2;0.0;1.1;NW;1000.0;12.7;17.6;0.0;10.2;21.9;43.2;536.4;0;1
142;03-06-2012 22:43;30;50;25.1;83;16.2;1007.3;0.0;0.0;NW;1000.1;13.3;16.2;0.0;10.2;21.9;43.2;536.4;0;0
143;03-06-2012 23:13;30;51;25.2;85;16.0;1007.3;0.0;0.0;NW;1000.1;13.5;16.0;0.0;10.2;21.9;43.2;536.4;0;0
144;03-06-2012 23:43;30;51;25.1;88;15.8;1007.3;0.0;0.0;NW;1000.1;13.8;15.8;0.0;10.2;21.9;43.2;536.4;0;0
145;04-06-2012 00:13;30;52;25.1;89;15.8;1007.5;0.0;0.0;N;1000.3;14.0;15.8;0.0;10.2;21.9;43.2;536.4;0;0
146;04-06-2012 00:43;30;53;25.0;89;15.6;1007.5;0.0;0.0;NW;1000.3;13.8;15.6;0.0;10.2;21.9;43.2;536.4;0;0
147;04-06-2012 01:13;30;53;25.0;92;15.4;1007.5;0.0;0.0;N;1000.3;14.1;15.4;0.3;10.5;22.2;43.5;536.7;0;0
148;04-06-2012 01:43;30;54;24.9;94;15.2;1007.4;0.0;0.0;N;1000.2;14.3;15.2;0.3;10.5;22.2;43.5;536.7;0;0
149;04-06-2012 02:13;30;54;24.9;95;15.0;1007.3;0.0;0.0;N;1000.1;14.2;15.0;0.0;10.5;22.2;43.5;536.7;0;0
150;04-06-2012 02:43;30;54;24.8;97;14.7;1007.2;0.0;0.0;N;1000.0;14.2;14.7;0.0;10.5;22.2;43.5;536.7;0;0
151;04-06-2012 03:13;30;54;24.8;96;14.2;1007.3;0.0;0.0;N;1000.1;13.6;14.2;0.0;9.9;22.2;43.5;536.7;0;0
152;04-06-2012 03:43;30;54;24.7;94;13.7;1007.3;0.0;0.0;N;1000.1;12.8;13.7;0.0;8.4;22.2;43.5;536.7;0;0
153;04-06-2012 04:13;30;54;24.6;92;13.5;1007.4;0.0;0.0;NE;1000.2;12.2;13.5;0.0;3.6;22.2;43.5;536.7;0;0
154;04-06-2012 04:43;30;54;24.6;92;13.4;1007.3;0.0;0.0;E;1000.1;12.1;13.4;0.0;2.4;22.2;43.5;536.7;0;0
155;04-06-2012 05:13;30;54;24.5;91;13.3;1007.1;0.0;0.0;N;999.9;11.9;13.3;0.0;2.4;22.2;43.5;536.7;0;0
156;04-06-2012 05:43;30;54;24.5;89;13.5;1007.0;0.0;0.0;NW;999.8;11.7;13.5;0.0;1.2;22.2;43.5;536.7;0;0
157;04-06-2012 06:13;30;54;24.4;88;13.5;1007.1;0.0;0.0;N;999.9;11.6;13.5;0.0;0.9;22.2;43.5;536.7;0;0
158;04-06-2012 06:43;30;54;24.4;90;13.4;1007.3;0.0;0.0;NW;1000.1;11.8;13.4;0.0;0.9;22.2;43.5;536.7;0;0
159;04-06-2012 07:13;30;54;24.4;92;13.4;1007.2;0.0;0.0;NW;1000.0;12.1;13.4;0.0;0.9;22.2;43.5;536.7;0;0
160;04-06-2012 07:43;30;53;24.4;91;14.0;1007.3;0.0;0.0;NW;1000.1;12.6;14.0;0.0;0.6;22.2;43.5;536.7;0;0
161;04-06-2012 08:13;30;53;24.0;89;14.6;1007.2;0.0;0.0;SE;1000.0;12.8;14.6;0.0;0.6;22.2;43.5;536.7;0;0
162;04-06-2012 08:43;30;53;24.0;87;14.4;1007.3;0.0;0.0;NW;1000.1;12.3;14.4;0.0;0.6;22.2;43.5;536.7;0;0
163;04-06-2012 09:13;30;54;24.1;85;14.8;1007.0;0.0;0.0;SE;999.8;12.3;14.8;0.0;0.6;22.2;43.5;536.7;0;0
164;04-06-2012 09:43;30;54;24.2;84;14.9;1007.5;0.0;0.0;NW;1000.3;12.2;14.9;0.0;0.6;22.2;43.5;536.7;0;0
165;04-06-2012 10:13;30;54;24.3;80;15.2;1007.4;0.0;0.0;W;1000.2;11.8;15.2;0.0;0.6;22.2;43.5;536.7;0;0
166;04-06-2012 10:43;30;54;24.3;81;14.7;1007.5;0.0;1.1;W;1000.3;11.5;14.7;0.0;0.6;22.2;43.5;536.7;0;1
167;04-06-2012 11:13;30;54;24.2;82;14.8;1007.7;0.0;0.0;E;1000.5;11.8;14.8;0.0;0.6;22.2;43.5;536.7;0;0
168;04-06-2012 11:43;30;54;24.2;83;15.2;1007.7;0.0;0.0;NW;1000.5;12.4;15.2;0.0;0.6;22.2;43.5;536.7;0;0
169;04-06-2012 12:13;30;54;24.3;78;16.7;1007.5;0.0;0.0;E;1000.3;12.9;16.7;0.0;0.6;22.2;43.5;536.7;0;0
170;04-06-2012 12:43;30;54;24.3;78;15.9;1007.5;0.0;0.0;N;1000.3;12.1;15.9;0.0;0.6;22.2;43.5;536.7;0;0
171;04-06-2012 13:13;30;54;24.3;83;15.7;1007.8;0.0;1.1;SE;1000.6;12.8;15.7;0.0;0.6;22.2;43.5;536.7;0;1
172;04-06-2012 13:43;30;54;24.3;83;16.9;1007.9;0.0;0.0;W;1000.7;14.0;16.9;0.0;0.6;22.2;43.5;536.7;0;0
173;04-06-2012 14:13;30;54;24.4;75;16.9;1008.4;0.0;0.0;SE;1001.2;12.5;16.9;0.0;0.6;22.2;43.5;536.7;0;0
174;04-06-2012 14:43;30;54;24.4;83;16.6;1008.8;0.0;0.0;NE;1001.6;13.7;16.6;0.0;0.6;22.2;43.5;536.7;0;0
175;04-06-2012 15:13;30;54;24.5;76;16.3;1009.1;0.0;0.0;N;1001.9;12.1;16.3;0.0;0.6;22.2;43.5;536.7;0;0
176;04-06-2012 15:43;30;53;24.6;71;17.5;1009.3;0.0;0.0;N;1002.1;12.2;17.5;0.0;0.6;22.2;43.5;536.7;0;0
177;04-06-2012 16:13;30;53;24.6;69;17.7;1009.5;0.0;0.0;E;1002.3;12.0;17.7;0.0;0.6;22.2;43.5;536.7;0;0
178;04-06-2012 16:43;30;53;24.6;68;16.9;1009.9;0.0;0.0;SW;1002.7;11.0;16.9;0.0;0.6;22.2;43.5;536.7;0;0
179;04-06-2012 17:13;30;52;24.5;73;15.9;1010.2;0.0;0.0;SW;1003.0;11.1;15.9;0.0;0.6;22.2;43.5;536.7;0;0
180;04-06-2012 17:43;30;52;24.4;75;14.9;1010.9;0.0;0.0;SE;1003.7;10.5;14.9;0.0;0.6;21.9;43.5;536.7;0;0
181;04-06-2012 18:13;30;51;24.3;76;14.6;1011.3;0.0;0.0;E;1004.1;10.4;14.6;0.0;0.3;21.9;43.5;536.7;0;0
182;04-06-2012 18:43;30;51;24.2;75;14.5;1011.6;0.0;0.0;E;1004.4;10.1;14.5;0.0;0.3;21.9;42.9;536.7;0;0
183;04-06-2012 19:13;30;51;24.2;73;14.2;1011.9;0.0;0.0;SE;1004.7;9.4;14.2;0.0;0.3;19.2;42.9;536.7;0;0
184;04-06-2012 19:43;30;53;24.3;74;14.2;1012.3;0.0;0.0;NE;1005.1;9.7;14.2;0.0;0.3;10.8;42.6;536.7;0;0
185;04-06-2012 20:13;30;54;24.5;74;14.2;1012.3;0.0;0.0;NE;1005.1;9.7;14.2;0.0;0.3;10.8;39.9;536.7;0;0
186;04-06-2012 20:43;30;54;24.7;73;12.9;1013.6;0.0;0.0;E;1006.4;8.2;12.9;0.0;0.3;10.8;36.6;536.7;0;0
187;04-06-2012 21:13;30;52;24.8;73;12.8;1013.9;0.0;0.0;N;1006.7;8.1;12.8;0.0;0.3;10.8;35.1;536.7;0;0
188;04-06-2012 21:43;30;49;24.4;73;12.4;1014.1;0.0;0.0;NE;1006.9;7.7;12.4;0.0;0.3;10.8;34.5;536.7;0;0
189;04-06-2012 22:13;30;50;24.4;75;11.7;1014.5;0.0;0.0;NW;1007.3;7.4;11.7;0.0;0.3;10.8;34.5;536.7;0;0
190;04-06-2012 22:43;30;50;24.4;79;11.0;1015.1;0.0;0.0;NW;1007.9;7.5;11.0;0.3;0.6;11.1;34.8;537.0;0;0
191;04-06-2012 23:13;30;50;24.3;83;10.7;1015.3;0.0;0.0;NW;1008.1;7.9;10.7;0.3;0.6;11.1;34.8;537.0;0;0
192;04-06-2012 23:43;30;50;24.1;85;9.8;1015.4;0.0;0.0;NW;1008.2;7.4;9.8;0.0;0.6;11.1;34.5;537.0;0;0
193;05-06-2012 00:13;30;51;23.9;86;9.2;1015.6;0.0;0.0;NW;1008.4;7.0;9.2;0.0;0.6;11.1;34.5;537.0;0;0
194;05-06-2012 00:43;30;51;23.8;89;8.4;1015.7;0.0;0.0;NW;1008.5;6.7;8.4;0.0;0.6;11.1;34.5;537.0;0;0
195;05-06-2012 01:13;30;51;23.6;90;8.4;1015.7;0.0;0.0;NW;1008.5;6.9;8.4;0.0;0.3;11.1;34.5;537.0;0;0
196;05-06-2012 01:43;30;51;23.5;91;8.3;1015.6;0.0;0.0;NW;1008.4;6.9;8.3;0.0;0.3;11.1;34.5;537.0;0;0
197;05-06-2012 02:13;30;51;23.5;92;8.2;1015.5;0.0;0.0;NW;1008.3;7.0;8.2;0.0;0.3;10.8;34.2;537.0;0;0
198;05-06-2012 02:43;30;51;23.4;92;8.2;1015.5;0.0;0.0;NW;1008.3;7.0;8.2;0.0;0.3;10.8;33.9;537.0;0;0
199;05-06-2012 03:13;30;51;23.3;93;7.9;1015.5;0.0;0.0;NW;1008.3;6.8;7.9;0.0;0.3;10.8;33.6;537.0;0;0
200;05-06-2012 03:43;30;51;23.2;94;7.4;1015.2;0.0;0.0;NW;1008.0;6.5;7.4;0.0;0.3;10.8;33.0;537.0;0;0
201;05-06-2012 04:13;30;51;23.1;95;7.4;1015.1;0.0;0.0;NW;1007.9;6.7;7.4;0.0;0.3;10.8;33.0;537.0;0;0
202;05-06-2012 04:43;30;51;23.1;96;7.4;1014.8;0.0;0.0;NW;1007.6;6.8;7.4;0.0;0.3;10.8;33.0;537.0;0;0
203;05-06-2012 05:13;30;51;23.0;97;7.4;1014.8;0.0;0.0;N;1007.6;7.0;7.4;0.0;0.3;10.8;33.0;537.0;0;0
204;05-06-2012 05:43;30;51;22.9;97;8.1;1014.9;0.0;0.0;NW;1007.7;7.7;8.1;0.0;0.3;10.8;33.0;537.0;0;0
205;05-06-2012 06:13;30;51;22.8;96;8.6;1014.9;0.0;0.0;E;1007.7;8.0;8.6;0.0;0.3;10.8;33.0;537.0;0;0
206;05-06-2012 06:43;30;51;22.8;92;9.2;1015.1;0.0;0.0;E;1007.9;8.0;9.2;0.0;0.3;10.8;33.0;537.0;0;0
207;05-06-2012 07:13;30;51;22.8;87;9.6;1015.2;0.0;0.0;NW;1008.0;7.6;9.6;0.0;0.3;10.8;32.7;537.0;0;0
208;05-06-2012 07:43;30;51;22.8;84;10.2;1015.2;0.0;0.0;E;1008.0;7.6;10.2;0.0;0.3;10.8;32.4;537.0;0;0
209;05-06-2012 08:13;30;51;22.8;80;10.7;1014.9;0.0;0.0;E;1007.7;7.4;10.7;0.0;0.3;10.8;32.4;537.0;0;0
210;05-06-2012 08:43;30;51;22.8;79;10.9;1015.2;0.0;0.0;E;1008.0;7.4;10.9;0.0;0.3;10.8;32.4;537.0;0;0
211;05-06-2012 09:13;30;51;22.9;77;11.4;1015.3;0.0;0.0;N;1008.1;7.5;11.4;0.0;0.3;10.8;32.4;537.0;0;0
212;05-06-2012 09:43;30;50;23.1;76;11.9;1015.4;0.0;0.0;E;1008.2;7.8;11.9;0.0;0.3;10.8;32.4;537.0;0;0
213;05-06-2012 10:13;30;50;23.2;70;13.0;1015.3;0.0;0.0;E;1008.1;7.7;13.0;0.0;0.3;10.8;32.4;537.0;0;0
214;05-06-2012 10:43;30;49;23.2;68;13.8;1015.1;0.0;0.0;NW;1007.9;8.0;13.8;0.0;0.3;10.8;32.4;537.0;0;0
215;05-06-2012 11:13;30;49;23.2;60;14.9;1014.8;0.0;0.0;NW;1007.6;7.2;14.9;0.0;0.3;10.8;32.4;537.0;0;0
216;05-06-2012 11:43;30;49;23.3;59;16.0;1014.8;0.0;0.0;NE;1007.6;8.0;16.0;0.0;0.3;10.8;32.4;537.0;0;0
217;05-06-2012 12:13;30;50;23.3;60;15.8;1014.6;0.0;0.0;E;1007.4;8.1;15.8;0.0;0.3;10.8;32.4;537.0;0;0
218;05-06-2012 12:43;30;49;23.4;55;16.7;1014.4;0.0;0.0;E;1007.2;7.6;16.7;0.0;0.3;10.8;32.4;537.0;0;0
219;05-06-2012 13:13;30;48;23.4;51;17.7;1014.3;0.0;0.0;NW;1007.1;7.5;17.7;0.0;0.3;10.8;32.4;537.0;0;0
220;05-06-2012 13:43;30;48;23.4;44;20.3;1013.9;0.0;0.0;NW;1006.7;7.7;20.3;0.0;0.3;10.8;32.4;537.0;0;0
221;05-06-2012 14:13;30;48;23.4;47;19.2;1013.6;0.0;0.0;N;1006.4;7.6;19.2;0.0;0.3;10.8;32.4;537.0;0;0
222;05-06-2012 14:43;30;48;23.4;44;20.6;1012.9;0.0;0.0;W;1005.7;7.9;20.6;0.0;0.3;10.8;32.4;537.0;0;0
223;05-06-2012 15:13;30;48;23.4;42;21.0;1012.3;0.0;0.0;SE;1005.1;7.6;21.0;0.0;0.3;10.8;32.4;537.0;0;0
224;05-06-2012 15:43;30;48;23.4;43;21.4;1012.1;0.0;0.0;W;1004.9;8.3;21.4;0.0;0.3;10.8;32.4;537.0;0;0
225;05-06-2012 16:13;30;48;23.4;42;21.0;1011.7;0.0;0.0;N;1004.5;7.6;21.0;0.0;0.3;10.8;32.4;537.0;0;0
226;05-06-2012 16:43;30;48;23.3;44;20.5;1011.0;0.0;0.0;N;1003.8;7.9;20.5;0.0;0.3;10.8;32.4;537.0;0;0
227;05-06-2012 17:13;30;48;23.3;46;20.0;1010.4;0.0;0.0;NE;1003.2;8.1;20.0;0.0;0.3;10.8;32.4;537.0;0;0
228;05-06-2012 17:43;30;47;23.2;49;19.6;1009.9;0.0;0.0;E;1002.7;8.6;19.6;0.0;0.3;10.8;32.4;537.0;0;0
229;05-06-2012 18:13;30;47;23.1;50;19.0;1009.5;0.0;0.0;NE;1002.3;8.4;19.0;0.0;0.3;10.8;32.4;537.0;0;0
230;05-06-2012 18:43;30;47;23.1;56;18.3;1009.2;0.0;0.0;E;1002.0;9.4;18.3;0.0;0.3;10.8;32.4;537.0;0;0